| time (UTC) | temp F | wind direction | speed knots | gust knots | rain 1hr in | rain 24hr in | rain mn in | humidity % | barometer mb |
| 20260503193034 | 64 | 15 | 3.5 | 9.6 | 0.00 | 0.00 | 0.00 | 60 | 1011.1 |
| 20260503191519 | 63 | 15 | 0.0 | 2.6 | 0.00 | 0.00 | 0.00 | 62 | 1011.2 |
| 20260503190025 | 63 | 139 | 0.0 | 1.7 | 0.00 | 0.00 | 0.00 | 66 | 1011.3 |
| 20260503184517 | 62 | 280 | 0.0 | 2.6 | 0.00 | 0.00 | 0.00 | 65 | 1011.4 |
| 20260503183111 | 62 | 224 | 0.0 | 3.5 | 0.00 | 0.00 | 0.00 | 66 | 1011.5 |
| 20260503181510 | 61 | 74 | 0.0 | 0.9 | 0.00 | 0.00 | 0.00 | 70 | 1011.5 |
| 20260503180012 | 60 | 187 | 1.7 | 7.0 | 0.00 | 0.00 | 0.00 | 68 | 1011.5 |
| 20260503174509 | 59 | 223 | 4.3 | 7.8 | 0.00 | 0.00 | 0.00 | 70 | 1011.5 |
| 20260503173016 | 59 | 228 | 4.3 | 7.8 | 0.00 | 0.00 | 0.00 | 72 | 1011.5 |
| 20260503171506 | 61 | 294 | 6.1 | 13.9 | 0.00 | 0.00 | 0.00 | 69 | 1011.4 |
| 20260503081508 | 56 | 331 | 1.7 | 4.3 | 0.00 | 0.00 | 0.00 | 77 | 1010.1 |
| 20260503071558 | 56 | 20 | 1.7 | 4.3 | 0.00 | 0.00 | 0.00 | 77 | 1010.4 |
| 20260503054554 | 57 | 327 | 1.7 | 8.7 | 0.00 | 0.00 | 0.00 | 75 | 1010.7 |
| 20260503053054 | 57 | 331 | 2.6 | 7.0 | 0.00 | 0.00 | 0.00 | 75 | 1010.8 |
| 20260503051553 | 57 | 13 | 1.7 | 7.8 | 0.00 | 0.00 | 0.00 | 75 | 1010.9 |
| 20260503050051 | 57 | 24 | 2.6 | 7.8 | 0.00 | 0.00 | 0.00 | 75 | 1010.8 |
| 20260503044554 | 57 | 324 | 1.7 | 9.6 | 0.00 | 0.00 | 0.00 | 75 | 1010.6 |
| 20260503043051 | 57 | 327 | 1.7 | 7.8 | 0.00 | 0.00 | 0.00 | 75 | 1010.5 |
| 20260503041549 | 57 | 350 | 2.6 | 7.0 | 0.00 | 0.00 | 0.00 | 75 | 1010.6 |
| 20260503040048 | 57 | 9 | 4.3 | 9.6 | 0.00 | 0.00 | 0.00 | 75 | 1010.3 |
| 20260503034600 | 57 | 340 | 5.2 | 9.6 | 0.00 | 0.00 | 0.00 | 74 | 1010.1 |
| 20260503033053 | 58 | 315 | 3.5 | 9.6 | 0.00 | 0.00 | 0.00 | 74 | 1009.9 |
| 20260503031548 | 58 | 22 | 6.1 | 10.4 | 0.00 | 0.00 | 0.00 | 73 | 1009.7 |
| 20260503030044 | 58 | 330 | 5.2 | 11.3 | 0.00 | 0.00 | 0.00 | 73 | 1009.7 |
| 20260503024545 | 59 | 324 | 6.1 | 12.2 | 0.00 | 0.00 | 0.00 | 73 | 1009.5 |
| 20260503023039 | 59 | 343 | 7.0 | 11.3 | 0.00 | 0.00 | 0.00 | 73 | 1009.2 |
| 20260503021538 | 60 | 331 | 6.1 | 11.3 | 0.00 | 0.00 | 0.00 | 72 | 1009.1 |
| 20260503020037 | 60 | 325 | 7.0 | 10.4 | 0.00 | 0.00 | 0.00 | 71 | 1009.2 |
| 20260503014541 | 61 | 34 | 5.2 | 12.2 | 0.00 | 0.00 | 0.00 | 71 | 1009.2 |
| 20260503013035 | 61 | 24 | 3.5 | 12.2 | 0.00 | 0.00 | 0.00 | 72 | 1009.3 |
| 20260503011533 | 62 | 33 | 6.1 | 13.0 | 0.00 | 0.00 | 0.00 | 71 | 1009.3 |
| 20260503010036 | 63 | 59 | 4.3 | 11.3 | 0.00 | 0.00 | 0.00 | 71 | 1009.3 |
| 20260503004533 | 63 | 36 | 5.2 | 12.2 | 0.00 | 0.00 | 0.00 | 69 | 1009.2 |
| 20260503003047 | 64 | 49 | 7.0 | 12.2 | 0.00 | 0.00 | 0.00 | 69 | 1009.3 |
| 20260503001548 | 64 | 34 | 5.2 | 10.4 | 0.00 | 0.00 | 0.00 | 68 | 1009.3 |
| 20260503000032 | 65 | 23 | 7.8 | 14.8 | 0.00 | 0.00 | 0.00 | 64 | 1009.3 |
| 20260502234534 | 66 | 330 | 5.2 | 14.8 | 0.00 | 0.00 | 0.00 | 65 | 1009.4 |
| 20260502233028 | 66 | 9 | 8.7 | 14.8 | 0.00 | 0.00 | 0.00 | 65 | 1009.5 |
| 20260502231525 | 66 | 360 | 7.0 | 13.0 | 0.00 | 0.00 | 0.00 | 64 | 1009.7 |
| 20260502230032 | 68 | 344 | 7.0 | 13.0 | 0.00 | 0.00 | 0.00 | 62 | 1009.7 |
| 20260502224521 | 68 | 22 | 6.1 | 10.4 | 0.00 | 0.00 | 0.00 | 62 | 1010.0 |
| 20260502223020 | 69 | 308 | 7.0 | 11.3 | 0.00 | 0.00 | 0.00 | 61 | 1010.2 |
| 20260502221521 | 69 | 321 | 6.1 | 10.4 | 0.00 | 0.00 | 0.00 | 61 | 1010.6 |
| 20260502220017 | 70 | 360 | 5.2 | 9.6 | 0.00 | 0.00 | 0.00 | 64 | 1010.7 |
| 20260502214516 | 70 | 5 | 4.3 | 11.3 | 0.00 | 0.00 | 0.00 | 62 | 1010.9 |
| 20260502213021 | 70 | 315 | 5.2 | 10.4 | 0.00 | 0.00 | 0.00 | 63 | 1010.8 |
| 20260502211518 | 70 | 293 | 4.3 | 9.6 | 0.00 | 0.00 | 0.00 | 63 | 1011.0 |
| 20260502210013 | 68 | 349 | 5.2 | 9.6 | 0.00 | 0.00 | 0.00 | 65 | 1011.1 |
| 20260502204513 | 67 | 300 | 3.5 | 10.4 | 0.00 | 0.00 | 0.00 | 65 | 1011.3 |
| 20260502203011 | 68 | 328 | 4.3 | 9.6 | 0.00 | 0.00 | 0.00 | 66 | 1011.4 |
| 20260502201510 | 67 | 324 | 1.7 | 7.8 | 0.00 | 0.00 | 0.00 | 70 | 1011.6 |
| 20260502200011 | 67 | 309 | 3.5 | 7.0 | 0.00 | 0.00 | 0.00 | 67 | 1011.8 |
| 20260502194507 | 66 | 273 | 1.7 | 3.5 | 0.00 | 0.00 | 0.00 | 68 | 1011.9 |